Location: Home
(42.5358°N, 72.7383°W)
Time: 15:08:47
(UTC-05:00)

deb Explorer IX - Pass Details

Date: 07 December 2021
Orbit: 544 x 1082 km, 38.8° (Epoch: 16 January)

Event Time Altitude Azimuth Distance (km) Brightness Sun altitude
Rises 08:49:19 0° 237° (WSW) 3,304 ? 13.5°
Reaches altitude 10° 08:52:07 10° 229° (SW) 2,277 ? 13.9°
Maximum altitude 08:56:56 37° 163° (SSE) 1,058 ? 14.4°
Drops below altitude 10° 09:01:03 11° 97° (E) 1,954 ? 14.9°
Sets 09:03:27 0° 88° (E) 2,833 ? 15.2°
